Flag for Bahamas Weather past 2 weeks in Nassau, Bahamas


Partly sunny.

Feels Like: N/A
Forecast: N/A
Wind: 14 mph from West

Location: Nassau Airport

Current Time: Oct 4, 2015 at 5:16:42 PM

Latest Report: Oct 4, 2015 at 4:00 PM

Visibility: N/A

Pressure: 29.72 "Hg

Humidity: N/A

Dew point: N/A

Location of NassauLocation

Historic Weather in Nassau — Graph


Nassau temperature yesterday

Maximum temperature yesterday: 86 °F (at 11:00 AM)
Minimum temperature yesterday: 79 °F (at 6:00 AM)
Average temperature yesterday: 83 °F

Past Weeks' High & Low Weather Summary

High91 °F (Sep 19, 5:00 PM)100% (Sep 23, 7:00 AM)30.15 "Hg (Sep 23, 7:00 AM)
Low73 °F (Sep 23, 7:00 AM)55% (Oct 4, 3:00 PM)28.80 "Hg (Sep 26, 4:00 AM)
Average83 °F78%29.81 "Hg
* Reported Sep 19 4:00 PM — Oct 4 4:00 PM, Nassau, Weather by CustomWeather, © 2015

Note: Actual official high and low records may vary slightly from our data, if they occured in-between our weather recording intervals... More about our weather records


Nassau weather history for previous 24 hours

Time TempWeatherWind HumidityBarometerVisibility
4:00 PM
Sun, Oct 4
N/APartly sunny.14 mphN/A29.72 "HgN/A
3:00 PM86 °FBroken clouds.13 mph55%29.73 "HgN/A
2:00 PM88 °FScattered clouds.10 mph59%29.76 "HgN/A
12:00 PM84 °FPartly sunny.12 mph58%29.78 "HgN/A
11:00 AM86 °FScattered clouds.12 mph62%29.78 "HgN/A
10:00 AM82 °FScattered clouds.12 mph66%29.78 "HgN/A
9:00 AM82 °FPartly sunny.10 mph66%29.76 "HgN/A
8:00 AM82 °FPassing clouds.9 mph66%29.74 "HgN/A
7:00 AM81 °FPartly cloudy.12 mph66%29.72 "HgN/A
6:00 AM81 °FPassing clouds.14 mph70%29.71 "HgN/A
4:00 AM79 °FPassing clouds.12 mph74%29.69 "HgN/A
1:00 AM81 °FPassing clouds.14 mph70%29.68 "HgN/A
12:00 AM81 °FPassing clouds.12 mph70%29.68 "HgN/A
11:00 PM
Sat, Oct 3
82 °FPassing clouds.12 mph62%29.69 "HgN/A
10:00 PM82 °FPassing clouds.16 mph66%29.67 "HgN/A
9:00 PM82 °FPassing clouds.14 mph58%29.67 "HgN/A
8:00 PM84 °FPassing clouds.16 mph62%29.64 "HgN/A
7:00 PM82 °FPassing clouds.16 mph66%29.63 "HgN/A
5:00 PM86 °FPassing clouds.23 mph66%29.59 "HgN/A
Weather by CustomWeather, © 2015

See weather overviewHow to use our weather pages